RH
15 13 12 11 11 10 9 9 8 7 6 6 5 5 5 5 5 6 7 6 7 7 8 8 13 21 26 31 31 27 36 42 42 40 35 40 38 43 41 42 45 42 46 50 45
16 15 13 12 11 11 10 8 8 7 7 6 6 5 4 5 5 5 5 6 7 8 9 9 12 20 23 28 31 31 28 35 37 34 34 32 32 32 32 33 35 34 48 50 49
17 16 14 13 12 11 10 9 8 8 8 7 7 6 5 5 5 6 7 6 7 8 10 10 14 19 20 26 30 31 27 30 34 32 30 30 29 26 28 27 25 27 34 45 46
17 16 15 13 12 11 11 10 9 8 8 7 7 7 6 5 7 8 8 8 7 8 9 11 16 16 19 24 27 28 26 27 22 25 27 27 28 30 27 26 22 25 27 32 52
18 17 16 14 12 11 11 10 9 8 8 8 7 7 7 6 8 10 10 9 8 8 9 11 13 15 18 20 22 24 21 20 19 20 21 23 22 23 23 22 21 22 26 28 41
18 17 16 15 12 12 11 10 9 9 8 8 8 8 7 7 10 11 11 11 10 10 11 11 12 15 17 20 19 17 17 17 17 16 16 17 18 19 16 18 19 20 27 27 29
19 18 17 16 12 12 11 10 10 9 9 8 8 8 8 10 10 11 13 13 13 13 12 11 13 16 17 17 17 16 17 16 15 16 16 16 16 16 15 17 18 21 23 26 28
19 18 17 17 13 12 12 10 11 11 11 10 9 8 9 11 12 12 12 12 15 15 13 13 16 19 18 18 18 19 18 17 16 16 16 15 16 16 15 15 15 18 23 25 28
19 18 17 17 14 13 12 12 12 12 12 12 12 12 11 12 12 12 12 12 15 16 16 16 18 18 18 18 16 17 16 16 16 16 16 16 16 17 16 15 15 15 20 24 27
19 17 17 17 15 14 13 12 12 12 12 12 14 14 13 13 12 12 12 14 15 17 19 20 19 18 16 15 16 16 17 17 17 16 16 17 16 16 15 15 16 15 17 22 29
19 17 16 16 16 15 13 12 12 12 11 12 12 13 14 13 13 13 12 13 14 15 16 19 20 18 16 17 16 17 18 18 17 17 17 16 15 17 17 17 17 15 17 21 29
19 18 17 16 15 16 14 12 13 13 13 12 11 12 13 13 12 13 13 14 15 16 16 17 17 17 17 17 17 18 19 19 17 17 17 17 16 17 20 20 20 21 21 21 27
19 18 17 17 17 17 14 12 12 13 13 12 12 11 12 12 13 13 14 15 17 18 17 17 18 18 18 18 18 19 19 20 18 18 18 18 18 20 20 21 21 22 22 23 24
18 18 16 16 18 18 16 13 13 13 14 13 13 12 13 13 14 14 15 16 16 17 18 18 17 18 20 21 21 21 20 20 19 18 19 19 18 18 23 21 21 22 23 24 25
16 18 17 17 18 20 17 16 16 16 17 14 13 13 13 14 14 15 16 16 17 17 18 18 19 20 22 22 22 22 21 21 20 20 20 21 20 20 24 23 22 24 25 26 28
12 15 18 19 19 20 18 18 18 19 20 15 15 15 15 16 17 18 19 18 18 19 19 19 19 20 21 22 23 22 22 24 23 23 22 24 23 20 21 25 26 25 27 28 27
10 12 16 20 22 20 20 20 20 21 20 18 18 18 18 20 20 21 21 21 20 21 21 20 21 21 22 23 24 25 25 27 27 26 26 27 25 23 25 29 28 28 30 31 31
9 11 15 18 20 22 21 21 22 23 22 21 20 20 22 22 23 22 22 22 22 21 22 22 24 23 23 23 25 25 27 29 33 29 26 28 27 25 30 33 34 31 31 32 33
7 10 15 16 17 19 20 21 22 23 24 23 23 23 24 24 24 24 25 25 24 23 22 24 25 25 26 25 26 28 28 29 32 33 30 28 30 32 37 37 36 37 33 36 37
8 9 15 15 16 17 20 22 23 24 25 25 25 25 26 25 25 26 26 26 24 24 24 25 25 24 25 26 27 27 30 33 35 39 40 35 36 35 37 37 36 36 37 35 36
6 8 12 13 13 14 18 21 22 22 23 23 22 22 22 24 24 26 26 27 27 27 26 26 27 27 28 29 30 29 31 33 33 36 36 37 33 33 33 34 35 36 36 39 39
6 6 11 11 11 15 17 18 20 21 21 20 20 21 21 21 21 23 26 27 28 28 29 30 29 30 29 29 29 29 31 32 34 41 39 39 34 30 33 33 35 34 34 35 39
10 10 12 11 12 16 18 19 20 20 22 22 21 20 21 22 22 23 24 25 25 24 27 29 31 33 34 32 33 36 36 33 35 38 39 42 35 34 32 31 30 32 37 43 48
13 14 19 16 17 18 20 22 21 22 22 24 24 22 22 24 24 25 25 25 26 26 26 26 28 29 31 32 33 35 35 33 35 35 34 35 32 28 29 38 42 46 48 48 48
18 20 26 27 25 22 21 22 23 24 24 23 24 25 26 28 29 30 29 28 28 28 28 28 30 30 29 30 31 31 29 29 33 31 36 27 31 28 36 49 49 50 51 50 50
24 26 27 28 30 27 26 28 25 25 25 26 26 26 25 27 27 28 27 28 28 30 28 26 28 28 28 27 28 29 25 25 26 27 28 29 30 37 49 51 52 50 49 50 54
25 29 29 30 28 27 28 32 31 28 27 26 27 26 25 26 27 27 27 29 29 29 26 25 26 28 25 26 25 26 21 23 26 31 38 43 46 51 53 53 55 53 51 52 56